Flag Weather past 2 weeks in Poznan, Poland

Now
27 °F

Partly sunny.


Feels Like: 15 °F
Forecast: 24 / 31 °F
Wind: 15 mph from Southeast

Location: Poznan Airport

Current Time: Nov 29, 2014 at 11:03:18 AM

Latest Report: Nov 29, 2014 at 10:30 AM


Visibility: 4 mi

Pressure: 30.33 "Hg

Humidity: 74%

Dew point: 19 °F

Location of PoznanLocation

Historic Weather in Poznan — Graph

°F

Poznan temperature yesterday

Maximum temperature yesterday: 34 °F (at 1:00 PM)
Minimum temperature yesterday: 28 °F (at 6:00 PM)
Average temperature yesterday: 31 °F

Past Weeks' High & Low Weather Summary

 TemperatureHumidityPressure
High50 °F (Nov 14, 12:00 PM)100% (Nov 14, 10:00 AM)30.36 "Hg (Nov 14, 10:00 AM)
Low25 °F (Nov 29, 5:30 AM)45% (Nov 25, 10:00 AM)29.71 "Hg (Nov 16, 7:30 AM)
Average40 °F90%30.14 "Hg
* Reported Nov 14 10:00 AM — Nov 29 10:00 AM, Poznan, Weather by CustomWeather, © 2014

Note: Actual official high and low records may vary slightly from our data, if they occured in-between our weather recording intervals... More about our weather records

Advertising

Poznan weather history for previous 24 hours

 ConditionsComfort  
Time TempWeatherWind HumidityBarometerVisibility
10:00 AM
Nov 29
25 °FPartly sunny.16 mph80%30.33 "Hg4 mi
9:30 AM25 °FPartly sunny.18 mph80%30.33 "Hg4 mi
9:00 AM25 °FPartly sunny.17 mph80%30.33 "Hg4 mi
8:30 AM25 °FPartly sunny.15 mph80%30.33 "Hg4 mi
8:00 AM25 °FPartly sunny.15 mph86%30.30 "Hg4 mi
7:30 AM25 °FPassing clouds.17 mph86%30.30 "Hg4 mi
7:00 AM25 °FPassing clouds.14 mph86%30.30 "Hg5 mi
6:30 AM25 °FClear.12 mph86%30.30 "Hg5 mi
6:00 AM25 °FClear.12 mph86%30.30 "Hg5 mi
5:30 AM25 °FClear.12 mph86%30.30 "Hg5 mi
5:00 AM27 °FClear.13 mph80%30.30 "Hg5 mi
4:30 AM27 °FPassing clouds.14 mph80%30.30 "Hg5 mi
4:00 AM27 °FPassing clouds.13 mph80%30.30 "Hg5 mi
3:30 AM27 °FPassing clouds.14 mph86%30.30 "Hg5 mi
3:00 AM28 °FPassing clouds.14 mph80%30.30 "Hg5 mi
2:30 AM28 °FPassing clouds.15 mph80%30.30 "Hg5 mi
2:00 AM28 °FPassing clouds.16 mph80%30.27 "Hg5 mi
1:30 AM28 °FPassing clouds.14 mph80%30.27 "Hg5 mi
1:00 AM28 °FPassing clouds.14 mph80%30.30 "Hg6 mi
12:30 AM28 °FPassing clouds.14 mph80%30.27 "Hg6 mi
12:00 AM28 °FPassing clouds.14 mph80%30.27 "Hg6 mi
11:30 PM
Nov 28
30 °FPassing clouds.15 mph75%30.30 "Hg5 mi
11:00 PM30 °FPassing clouds.13 mph75%30.30 "Hg5 mi
10:30 PM28 °FPassing clouds.13 mph80%30.27 "Hg5 mi
10:00 PM28 °FPassing clouds.13 mph80%30.30 "HgN/A
9:30 PM28 °FPassing clouds.14 mph80%30.27 "HgN/A
9:00 PM28 °FPassing clouds.17 mph74%30.27 "HgN/A
8:30 PM28 °FPassing clouds.17 mph74%30.27 "HgN/A
8:00 PM28 °FPassing clouds.17 mph74%30.27 "HgN/A
7:30 PM28 °FPassing clouds.18 mph74%30.27 "HgN/A
7:00 PM28 °FPassing clouds.16 mph74%30.27 "HgN/A
6:30 PM28 °FPassing clouds.17 mph74%30.24 "HgN/A
6:00 PM28 °FPassing clouds.20 mph74%30.24 "HgN/A
5:30 PM30 °FPassing clouds.18 mph69%30.24 "HgN/A
5:00 PM30 °FPassing clouds.15 mph75%30.24 "HgN/A
4:30 PM30 °FPassing clouds.18 mph69%30.21 "HgN/A
4:00 PM30 °FPassing clouds.15 mph69%30.21 "HgN/A
3:30 PM30 °FPassing clouds.18 mph69%30.21 "HgN/A
3:00 PM32 °FPassing clouds.15 mph64%30.21 "HgN/A
2:30 PM32 °FPassing clouds.16 mph64%30.18 "HgN/A
2:00 PM32 °FPassing clouds.14 mph64%30.18 "HgN/A
1:30 PM32 °FPassing clouds.20 mph64%30.18 "HgN/A
1:00 PM34 °FPassing clouds.15 mph60%30.21 "HgN/A
12:30 PM32 °FScattered clouds.17 mph64%30.18 "HgN/A
12:00 PM32 °FPartly sunny.17 mph69%30.18 "HgN/A
11:30 AM30 °FBroken clouds.15 mph80%30.21 "HgN/A
11:00 AM30 °FOvercast.16 mph80%30.21 "Hg4 mi
Weather by CustomWeather, © 2014

See weather overviewHow to use our weather pages